Regional Weather Roundup
Issued by NWS Upton, NY

Current Version | Previous Version | Text Only | Print | Product List | Glossary On
Versions: 1 2 3 4 5 6 7 8 9 10 11 12 13 14 15 16 17 18 19 20 21 22 23 24 25 26 27
000 ASUS41 KOKX 181208 RWROKX REGIONAL WEATHER ROUNDUP NATIONAL WEATHER SERVICE NEW YORK NY 800 AM EDT FRI AUG 18 2017 NOTE: "FAIR" INDICATES FEW OR NO CLOUDS BELOW 12,000 FEET WITH NO SIGNIFICANT WEATHER AND/OR OBSTRUCTIONS TO VISIBILITY. NYZ071-072-176-178-NJZ106-104-181300- NEW YORK CITY METRO AREA CITY SKY/WX TMP DP RH WIND PRES REMARKS Central Park LGT RAIN 74 72 93 CALM 29.92S FOG Bronx Bot Gard N/A 73 72 94 W5 29.92R LaGuardia APRT CLOUDY 76 74 93 S9 29.88F Kennedy INTL LGT RAIN 75 75 100 S15 29.89F Breezy Point N/A 73 N/A N/A S15 N/A Newark/Liberty TSTM 75 71 87 NW9 29.88S Teterboro HVY RAIN 73 72 96 NE3 29.88S VSB 1/2 $$ NYZ177-179-078>081-181300- LONG ISLAND NEW YORK CITY SKY/WX TMP DP RH WIND PRES REMARKS Jones Beach N/A 75 N/A N/A S10 N/A Matinecock PT N/A 75 N/A N/A SW6 N/A Farmingdale CLOUDY 76 72 87 S13 29.90F MacArthur/ISP CLOUDY 76 73 91 S14 29.90F Shirley CLOUDY 77 73 87 S12 29.92F Mt Sinai Harb N/A N/A N/A N/A S10 N/A Westhampton PTSUNNY 75 71 87 S9 29.94F East Hampton CLOUDY 73 71 93 SE8 29.94S Montauk N/A 73 72 96 S8 29.96F $$ NYZ052-065-067-181300- HUDSON VALLEY CITY SKY/WX TMP DP RH WIND PRES REMARKS White Plains LGT RAIN 74 71 91 SE6 29.91R Larchmont Harb N/A 75 N/A N/A SE6 N/A Croton On Huds N/A 73 N/A N/A SE3 N/A Newburgh LGT RAIN 72 72 100 CALM 29.90S Montgomery RAIN 73 70 90 S5 29.88S FOG Poughkeepsie CLOUDY 73 69 87 CALM 29.87S Albany CLOUDY 72 68 87 S13 29.83F FOG $$ NJZ001-105-106-008-010-013-015-019>022-104-181300- NEW JERSEY CITY SKY/WX TMP DP RH WIND PRES REMARKS Newark/Liberty TSTM 75 71 87 NW9 29.88S Teterboro HVY RAIN 73 72 96 NE3 29.88S VSB 1/2 Caldwell LGT RAIN 72 72 100 CALM 29.89F FOG Somerville LGT RAIN 72 72 100 CALM 29.87S FOG Linden NOT AVBL Perth Amboy N/A 75 N/A N/A S8 N/A Sussex CLOUDY 72 71 97 CALM 29.89S Andover N/A 71 69 93 S3 29.89F Trenton LGT RAIN 75 71 87 VRB3 29.88S Millville CLOUDY 79 78 97 VRB3 29.89S Atlantic City CLOUDY 79 76 90 S10G18 29.89F Wrightstown LGT RAIN 75 73 94 S9 29.86S Toms River CLOUDY 78 75 90 S9 29.89F Belmar PTSUNNY 77 73 87 S7G16 29.90F $$ PAZ047>061-062-071-181300- EASTERN PENNSYLVANIA CITY SKY/WX TMP DP RH WIND PRES REMARKS Philadelphia CLOUDY 77 74 90 S9 29.87F THUNDER Allentown CLOUDY 74 70 87 S3 29.88S Scranton LGT RAIN 75 72 90 CALM 29.87S $$ CTZ002-004>006-009-010-012-RIZ004-006-007-MAZ004-011-015-181300- SOUTHERN NEW ENGLAND IN CT CITY SKY/WX TMP DP RH WIND PRES REMARKS Bradley INTL CLOUDY 71 68 90 S6 29.91F Hartford CLOUDY 74 71 91 S10 29.91S Danbury LGT RAIN 74 71 91 S7 29.92S FOG Wtrbury/Oxford CLOUDY 72 70 93 S10 29.93F Norwalk Harbor N/A 73 N/A N/A S6 N/A Bridgeport CLOUDY 74 71 91 SE6 29.91F Meriden CLOUDY 74 70 87 S9 29.91F New Haven CLOUDY 75 71 87 SE7 29.92F Chester NOT AVBL Groton CLOUDY 72 70 93 SE13 29.94F FOG Wilimantic CLOUDY 70 69 97 SE5 29.95S IN RI CITY SKY/WX TMP DP RH WIND PRES REMARKS Providence CLOUDY 72 70 93 S7 29.97S Block Island CLOUDY 72 71 97 S12 29.97F FOG Westerly CLOUDY 73 71 93 SE9 29.96F FOG IN MA CITY SKY/WX TMP DP RH WIND PRES REMARKS Boston CLOUDY 70 63 78 SE8 29.96S Worcester CLOUDY 65 63 93 S10 29.97S FOG Westfield CLOUDY 67 66 97 CALM 29.91F FOG Provincetown CLOUDY 70 65 84 S6 29.99S Nantucket CLOUDY 67 67 100 SE9 30.00S $$ ANZ330-335-338-340-345-350-353-355-181300- COASTAL MARINE OBSERVATIONS STATION/POSITION TIME SKY/WX TEMP WIND PRES VSBY WAVE AIR SEA DIR/SP/G HT/PER (UTC) (F) (DEG/KT/KT) (MB) (MI) (FT/S) NY HARB ENTRANCE 1150 76 75 180/ 16/ 19 1011.3 3/ 4 GREAT SOUTH BAY 1115 75 78 170/ 12/ 16 N/A 23 SSW MONTAUK P 1150 73 71 1014.3 2/ 7 15 E BARNEGAT LI 1130 76 N/A 4/ 4 HUDSON CANYON 1150 76 75 170/ 12/ 14 1013.6 2/ 8 KINGS POINT 1136 75 74 210/ 12/ 17 1011.9 EXECUTION ROCKS NOT AVBL WESTERN LI SOUND NOT AVBL CENTRAL LI SOUND NOT AVBL EASTERN LI SOUND NOT AVBL ROBBINS REEF 1136 160/ 9/ 11 1012.3 $$ >>>>>>>>>>>>>>>>>>>>>>>>>>>> KEY <<<<<<<<<<<<<<<<<<<<<<<<<<< > < > SKY/WX - Sky Condition/Present Weather < > TMP - Temperature in Fahrenheit < > DP - Dew Point in Fahrenheit < > RH - Relative Humidity in Percent < > WIND - Direction (from) and Speed in MPH < > PRES - Mean Sea Level Pressure (inches of Hg) < > WCI - Wind Chill Index < > VSB - VISIBILITY IN MILES < > HX - HEAT INDEX < > TC - TEMPERATURE IN CELSIUS < > VRB - VARIABLE WIND DIRECTION < > < >>>>>>>>>>>>>>>>>>>>>>>>>>>> KEY <<<<<<<<<<<<<<<<<<<<<<<<<<<

USA.gov is the U.S. government's official web portal to all federal, state and local government web resources and services.